Location: Unspecified
(0.0000°N, 0.0000°E)
Time: 11:55:03
(UTC+00:00)

Vanguard 2 - All Passes

Search period start: 25 July 2016 00:00
Search period end: 04 August 2016 00:00
Orbit: 555 x 2940 km, 32.9° (Epoch: 24 July)

Date Brightness Start Highest point End Pass type
(mag) Time Alt. Az. Time Alt. Az. Time Alt. Az.
25 Jul - 00:17:19 10° SSW 00:31:33 30° SSE 00:45:31 10° E visible
25 Jul - 02:28:10 10° SW 02:46:08 67° SE 02:59:55 10° ENE visible
25 Jul - 04:42:24 10° WSW 04:58:18 52° NW 05:08:55 10° NE visible
25 Jul - 07:04:07 10° WNW 07:09:07 13° NW 07:13:19 10° N daylight
25 Jul - 13:43:15 10° N 13:45:15 13° NE 13:47:26 10° ENE daylight
25 Jul - 15:48:50 10° WNW 15:53:20 61° SSW 16:00:14 10° SE daylight
25 Jul - 17:59:35 10° SW 18:03:58 17° SSW 18:09:42 10° SSE daylight
25 Jul - 20:16:40 10° S 20:18:04 10° S 20:19:31 10° S visible
25 Jul - 22:26:12 10° SSW 22:34:56 17° SSE 22:44:43 10° SE visible
26 Jul - 00:35:26 10° SSW 00:50:57 38° SSE 01:05:48 10° E visible
26 Jul - 02:46:42 10° SW 03:04:56 84° SE 03:18:38 10° ENE visible
26 Jul - 05:02:15 10° W 05:16:46 39° NW 05:26:47 10° NNE visible
26 Jul - 14:00:12 10° NNW 14:03:35 25° NE 14:07:35 10° E daylight
26 Jul - 16:07:37 10° W 16:11:59 35° SSW 16:18:25 10° SE daylight
26 Jul - 18:20:32 10° SSW 18:23:23 12° SSW 18:26:39 10° S visible
26 Jul - 22:44:21 10° SSW 22:54:52 21° SSE 23:06:39 10° ESE night (unlit)
27 Jul - 00:53:35 10° SW 01:10:07 48° SSE 01:25:33 10° ENE visible
27 Jul - 03:05:29 10° WSW 03:23:37 79° NW 03:37:06 10° NE visible
27 Jul - 05:22:42 10° W 05:35:21 29° NW 05:44:28 10° NNE visible
27 Jul - 14:17:59 10° NW 14:21:52 51° NE 14:26:46 10° ESE daylight
27 Jul - 16:26:54 10° WSW 16:30:52 22° SSW 16:36:13 10° SSE daylight
27 Jul - 20:55:55 10° S 20:58:23 11° SSE 21:01:02 10° SSE visible
27 Jul - 23:02:21 10° SSW 23:14:31 26° SSE 23:28:04 10° ESE night (unlit)
28 Jul - 01:11:48 10° SW 01:29:06 60° SE 01:44:53 10° ENE visible
28 Jul - 03:24:34 10° WSW 03:42:13 63° NW 03:55:20 10° NE visible
28 Jul - 05:43:53 10° WNW 05:54:06 21° NW 06:01:55 10° N visible
28 Jul - 14:36:13 10° WNW 14:40:12 78° SW 14:45:26 10° SE daylight
28 Jul - 16:46:58 10° SW 16:49:53 14° SSW 16:53:25 10° SSE daylight
28 Jul - 21:13:18 10° S 21:18:28 13° SSE 21:24:17 10° SE visible
28 Jul - 23:20:19 10° SSW 23:33:53 33° SSE 23:48:53 10° E visible
29 Jul - 01:30:10 10° SW 01:47:57 75° SE 02:03:51 10° ENE visible
29 Jul - 03:44:04 10° WSW 04:00:49 49° NW 04:13:23 10° NE visible
29 Jul - 06:06:00 10° WNW 06:13:07 15° NNW 06:18:58 10° N daylight
29 Jul - 12:47:44 10° N 12:50:29 17° NNE 12:53:14 10° ENE daylight
29 Jul - 14:54:53 10° W 14:58:42 39° SSW 15:03:38 10° SE daylight
29 Jul - 21:30:52 10° S 21:38:20 16° SSE 21:47:04 10° ESE visible
29 Jul - 23:38:19 10° SSW 23:53:00 42° SSE 00:09:05 10° E visible
30 Jul - 01:48:44 10° SW 02:06:41 89° NW 02:22:30 10° NE visible
30 Jul - 04:04:02 10° W 04:19:30 38° NW 04:31:17 10° NNE visible
30 Jul - 06:30:04 10° NW 06:32:26 11° NNW 06:34:37 10° NNW daylight
30 Jul - 13:05:13 10° NNW 13:08:55 34° NE 13:12:42 10° ESE daylight
30 Jul - 15:14:05 10° WSW 15:17:21 21° SSW 15:21:23 10° SSE daylight
30 Jul - 21:48:30 10° SSW 21:57:54 21° SSE 22:09:14 10° ESE visible
30 Jul - 23:56:23 10° SW 00:11:55 53° SE 00:28:47 10° ENE visible
31 Jul - 02:07:34 10° WSW 02:25:24 73° NW 02:40:55 10° NE visible
31 Jul - 04:24:36 10° W 04:38:21 29° NW 04:49:04 10° NNE visible
31 Jul - 13:23:16 10° NW 13:27:18 75° NE 13:31:30 10° ESE daylight
31 Jul - 15:34:19 10° SW 15:36:11 12° SSW 15:38:15 10° S daylight
31 Jul - 22:06:12 10° SSW 22:17:12 27° SSE 22:30:42 10° E visible
01 Aug - 00:14:35 10° SW 00:30:43 66° SE 00:48:04 10° ENE visible
01 Aug - 02:26:43 10° WSW 02:44:07 58° NW 02:59:09 10° NE visible
01 Aug - 04:45:53 10° WNW 04:57:25 22° NNW 05:06:41 10° NNE visible
01 Aug - 11:34:30 10° N 11:37:11 15° NNE 11:39:35 10° ENE daylight
01 Aug - 13:41:48 10° WNW 13:45:40 49° SW 13:49:48 10° SE daylight
01 Aug - 20:20:08 10° SSE 20:22:26 11° SSE 20:24:55 10° SE visible
01 Aug - 22:24:00 10° SSW 22:36:13 35° SE 22:51:27 10° E night (unlit)
02 Aug - 00:32:57 10° SW 00:49:27 82° SE 01:06:58 10° ENE visible
02 Aug - 02:46:16 10° WSW 03:02:54 46° NW 03:17:14 10° NE visible
02 Aug - 05:07:55 10° WNW 05:16:47 17° NNW 05:24:10 10° N visible
02 Aug - 11:51:46 10° NNW 11:55:52 27° NNE 11:59:18 10° E daylight
02 Aug - 14:00:51 10° W 14:04:07 24° SSW 14:07:38 10° SSE daylight
02 Aug - 20:36:03 10° S 20:41:57 15° SSE 20:49:00 10° ESE visible
02 Aug - 22:41:54 10° SSW 22:55:03 45° SE 23:11:36 10° ENE visible
03 Aug - 00:51:32 10° WSW 01:08:11 82° NW 01:25:36 10° NE visible
03 Aug - 03:06:20 10° W 03:21:51 36° NNW 03:35:12 10° NNE visible
03 Aug - 05:30:50 10° NW 05:36:25 13° NNW 05:41:21 10° N visible
03 Aug - 12:09:43 10° NW 12:14:23 54° NNE 12:18:15 10° ESE daylight
03 Aug - 14:20:53 10° WSW 14:22:42 13° SSW 14:24:36 10° S daylight
03 Aug - 20:53:10 10° S 21:01:11 20° SSE 21:11:21 10° ESE visible
03 Aug - 22:59:55 10° SW 23:13:45 57° SE 23:31:13 10° ENE visible
